DW9064 Weather Reports


Display with metric or nautical units.
time (UTC)temp
F
wind
direction
speed
MPH
gust
MPH
rain 1hr
in
rain 24hr
in
rain mn
in
humidity
%
barometer
mb
20260507164205 65 107 1.0 6.0 0.00 0.00 0.00 53 1029.4
20260507163305 64 124 4.0 8.0 0.00 0.00 0.00 52 1029.4
20260507161505 64 106 1.0 7.0 0.00 0.00 0.00 57 1029.8
20260507160605 62 80 2.0 8.0 0.00 0.00 0.00 58 1029.7
20260507155705 62 336 3.0 7.0 0.00 0.00 0.00 59 1029.9
20260507153905 60 75 1.0 7.0 0.00 0.00 0.00 63 1029.9
20260507152105 58 86 3.0 6.0 0.00 0.00 0.00 68 1029.9
20260507151205 57 85 2.0 6.0 0.00 0.00 0.00 70 1029.9
20260507150305 56 111 2.0 8.0 0.00 0.00 0.00 70 1030.0
20260507144505 55 115 1.0 4.0 0.00 0.00 0.00 75 1029.9
20260507143605 54 123 1.0 6.0 0.00 0.00 0.00 77 1030.0
20260507141804 50 110 1.0 4.0 0.00 0.00 0.00 87 1030.0
20260507140006 47 355 1.0 4.0 0.00 0.00 0.00 90 1029.8
20260507135105 46 358 3.0 4.0 0.00 0.00 0.00 90 1029.4
20260507134206 46 9 3.0 4.0 0.00 0.00 0.00 90 1029.2
20260507133305 45 7 0.0 4.0 0.00 0.00 0.00 90 1029.3
20260507132404 45 343 0.0 4.0 0.00 0.00 0.00 90 1029.2
20260507131504 45 1 2.0 4.0 0.00 0.00 0.00 89 1028.9
20260507130605 45 10 2.0 4.0 0.00 0.00 0.00 89 1028.8
20260507125704 45 6 2.0 4.0 0.00 0.00 0.00 89 1028.6
20260507124804 45 352 2.0 6.0 0.00 0.00 0.00 91 1028.4
20260507123904 45 336 3.0 8.0 0.00 0.00 0.00 91 1028.4
20260507121204 44 340 4.0 7.0 0.00 0.00 0.00 90 1028.3
20260507120305 44 334 4.0 5.0 0.00 0.00 0.00 90 1028.2
20260507115404 44 347 3.0 4.0 0.00 0.00 0.00 90 1028.3
20260507114504 44 338 3.0 6.0 0.00 0.00 0.00 90 1028.3
20260507113604 44 347 4.0 6.0 0.00 0.00 0.00 90 1028.1
20260507111804 44 316 4.0 6.0 0.00 0.00 0.00 89 1027.9
20260507110904 44 318 4.0 5.0 0.00 0.00 0.00 88 1027.8
20260507105105 45 322 4.0 8.0 0.00 0.00 0.00 87 1027.7
20260507104204 45 335 4.0 8.0 0.00 0.00 0.00 86 1027.7
20260507103304 45 330 4.0 6.0 0.00 0.00 0.00 86 1027.7
20260507102404 46 347 4.0 6.0 0.00 0.00 0.00 85 1027.5
20260507101504 46 335 3.0 7.0 0.00 0.00 0.00 85 1027.6
20260507100604 46 339 4.0 7.0 0.00 0.00 0.00 85 1027.5
20260507095704 46 331 4.0 8.0 0.00 0.00 0.00 86 1027.4
20260507094804 46 330 5.0 8.0 0.00 0.00 0.00 86 1027.2
20260507093904 46 318 6.0 8.0 0.00 0.00 0.00 86 1027.1
20260507093004 46 314 5.0 8.0 0.00 0.00 0.00 85 1027.1
20260507091204 46 315 4.0 8.0 0.00 0.00 0.00 84 1026.9
20260507090304 47 314 4.0 7.0 0.00 0.00 0.00 84 1026.8
20260507085404 47 320 5.0 7.0 0.00 0.00 0.00 83 1026.7
20260507084504 48 314 5.0 8.0 0.00 0.00 0.00 83 1026.5
20260507083604 48 316 7.0 8.0 0.00 0.00 0.00 82 1026.4
20260507082704 48 314 6.0 8.0 0.00 0.00 0.00 81 1026.3
20260507081804 48 314 7.0 9.0 0.00 0.00 0.00 81 1026.2
20260507080904 48 318 6.0 8.0 0.00 0.00 0.00 80 1026.3
20260507080004 49 322 4.0 8.0 0.00 0.00 0.00 80 1026.1
20260507075104 49 318 4.0 8.0 0.00 0.00 0.00 80 1026.1
20260507074204 49 329 7.0 8.0 0.00 0.00 0.00 80 1026.0
20260507073304 49 314 7.0 10.0 0.00 0.00 0.00 80 1025.8
20260507072404 49 317 8.0 11.0 0.00 0.00 0.00 79 1025.7
20260507071504 49 319 8.0 10.0 0.00 0.00 0.00 78 1025.7
20260507065704 50 316 7.0 8.0 0.00 0.00 0.00 77 1025.5
20260507064804 50 319 7.0 8.0 0.00 0.00 0.00 76 1025.5
20260507063904 50 319 7.0 11.0 0.00 0.00 0.00 75 1025.2
20260507063004 51 316 7.0 10.0 0.00 0.00 0.00 76 1025.1
20260507062104 51 314 8.0 9.0 0.00 0.00 0.00 76 1024.9
20260507061204 51 316 6.0 8.0 0.00 0.00 0.00 75 1024.8
20260507060303 52 316 6.0 8.0 0.00 0.00 0.00 74 1024.9
20260507055404 52 346 4.0 9.0 0.00 0.00 0.00 74 1024.8
20260507053604 52 338 7.0 8.0 0.00 0.00 0.00 73 1024.6
20260507052704 52 327 4.0 8.0 0.00 0.00 0.00 73 1024.4
20260507051803 53 328 5.0 10.0 0.00 0.00 0.00 73 1024.2
20260507050904 53 318 7.0 9.0 0.00 0.00 0.00 73 1024.0
20260507050003 54 325 8.0 10.0 0.00 0.00 0.00 71 1023.9
20260507045103 55 334 4.0 10.0 0.00 0.00 0.00 70 1023.9
20260507044203 55 314 8.0 10.0 0.00 0.00 0.00 72 1023.9
20260507043304 55 314 7.0 10.0 0.00 0.00 0.00 74 1023.9
20260507042403 56 314 7.0 9.0 0.00 0.00 0.00 74 1023.9
20260507041504 57 321 8.0 9.0 0.00 0.00 0.00 74 1023.7
20260507040604 58 314 7.0 10.0 0.00 0.00 0.00 72 1023.5
20260507035703 58 314 6.0 8.0 0.00 0.00 0.00 73 1023.3
20260507033003 60 314 8.0 10.0 0.00 0.00 0.00 70 1023.0
20260507032103 60 316 8.0 11.0 0.00 0.00 0.00 70 1022.9
20260507031203 60 316 9.0 11.0 0.00 0.00 0.00 70 1022.8
20260507030303 61 314 8.0 11.0 0.00 0.00 0.00 69 1022.6
20260507025403 62 314 8.0 11.0 0.00 0.00 0.00 69 1022.4
20260507024503 62 317 8.0 9.0 0.00 0.00 0.00 68 1022.5
20260507023603 63 314 7.0 9.0 0.00 0.00 0.00 67 1022.4
20260507022703 65 317 7.0 9.0 0.00 0.00 0.00 66 1022.2
20260507021803 66 319 8.0 9.0 0.00 0.00 0.00 63 1022.3
20260507020004 70 315 4.0 5.0 0.00 0.00 0.00 55 1022.5
20260507014203 72 327 4.0 6.0 0.00 0.00 0.00 49 1022.5
20260507013303 74 1 2.0 8.0 0.00 0.00 0.00 42 1022.5
20260507012403 74 188 3.0 8.0 0.00 0.00 0.00 33 1022.7
20260507005703 76 259 5.0 10.0 0.00 0.00 0.00 28 1023.0
20260507004803 77 225 4.0 11.0 0.00 0.00 0.00 28 1023.2
20260507003903 77 215 5.0 11.0 0.00 0.00 0.00 27 1023.2
20260507002103 77 235 2.0 11.0 0.00 0.00 0.00 29 1023.2
20260507001203 77 225 5.0 12.0 0.00 0.00 0.00 28 1023.3
20260507000303 77 220 5.0 14.0 0.00 0.00 0.00 26 1023.3
20260506235403 77 210 3.0 17.0 0.00 0.00 0.00 27 1023.4
20260506234503 77 201 6.0 14.0 0.00 0.00 0.00 28 1023.4
20260506233603 77 209 5.0 14.0 0.00 0.00 0.00 27 1023.4
20260506231803 78 253 4.0 13.0 0.00 0.00 0.00 25 1023.5
20260506230003 78 189 5.0 14.0 0.00 0.00 0.00 25 1023.8
20260506225103 78 206 4.0 12.0 0.00 0.00 0.00 25 1023.8
20260506224203 78 214 4.0 10.0 0.00 0.00 0.00 25 1024.0
20260506223303 78 205 4.0 12.0 0.00 0.00 0.00 24 1024.2
20260506222403 78 204 4.0 16.0 0.00 0.00 0.00 24 1024.3
20260506221503 78 192 5.0 16.0 0.00 0.00 0.00 24 1024.4
20260506215703 78 205 8.0 16.0 0.00 0.00 0.00 21 1024.5
20260506213903 78 211 7.0 15.0 0.00 0.00 0.00 22 1024.5
20260506212102 78 181 4.0 16.0 0.00 0.00 0.00 21 1024.6
20260506211203 79 166 10.0 16.0 0.00 0.00 0.00 20 1024.7
20260506210303 79 178 9.0 14.0 0.00 0.00 0.00 21 1024.8
20260506205402 77 191 4.0 16.0 0.00 0.00 0.00 21 1024.9
20260506204502 78 191 4.0 13.0 0.00 0.00 0.00 21 1025.1
20260506203602 78 187 7.0 19.0 0.00 0.00 0.00 21 1025.2
20260506202702 77 187 8.0 19.0 0.00 0.00 0.00 20 1025.4
20260506200903 76 183 8.0 13.0 0.00 0.00 0.00 21 1025.6
20260506200003 76 183 7.0 13.0 0.00 0.00 0.00 23 1025.6
20260506195102 75 170 7.0 13.0 0.00 0.00 0.00 22 1025.8
20260506194203 75 174 7.0 13.0 0.00 0.00 0.00 21 1025.9
20260506193302 75 179 8.0 12.0 0.00 0.00 0.00 21 1026.0
20260506192402 75 181 4.0 12.0 0.00 0.00 0.00 20 1026.2
20260506191502 74 172 8.0 12.0 0.00 0.00 0.00 23 1026.4
20260506190602 73 182 8.0 13.0 0.00 0.00 0.00 24 1026.7
20260506185702 72 172 7.0 12.0 0.00 0.00 0.00 24 1026.7
20260506184802 71 168 7.0 13.0 0.00 0.00 0.00 24 1026.9
20260506183902 70 171 7.0 10.0 0.00 0.00 0.00 25 1027.1
20260506183003 70 166 4.0 7.0 0.00 0.00 0.00 26 1027.3
20260506182102 69 142 2.0 8.0 0.00 0.00 0.00 26 1027.4
20260506181202 68 163 4.0 8.0 0.00 0.00 0.00 26 1027.7
20260506180302 67 162 2.0 6.0 0.00 0.00 0.00 25 1027.8
20260506175402 67 124 1.0 6.0 0.00 0.00 0.00 28 1028.0
20260506174502 67 117 3.0 7.0 0.00 0.00 0.00 29 1028.0
20260506173602 66 108 3.0 8.0 0.00 0.00 0.00 29 1028.1
20260506171802 65 113 4.0 9.0 0.00 0.00 0.00 32 1028.6
20260506170902 65 106 2.0 9.0 0.00 0.00 0.00 32 1028.8
20260506165102 61 127 4.0 7.0 0.00 0.00 0.00 41 1028.9